Location: Forst
(46.9333°N, 15.4333°E)
Time: 05:26:52
(UTC+00:00)

SL-16 R/B - Pass Details

Date: 01 December 2020
Orbit: 841 x 849 km, 71.0° (Epoch: 18 January)

Event Time Altitude Azimuth Distance (km) Brightness Sun altitude
Rises 16:51:52 0° 226° (SW) 3,387 6.4 -16.6°
Reaches altitude 10° 16:54:25 10° 233° (SW) 2,455 5.7 -17.0°
Maximum altitude 16:59:48 44° 305° (NW) 1,150 3.2 -17.9°
Drops below altitude 10° 17:05:12 10° 17° (NNE) 2,469 4.3 -18.8°
Enters shadow 17:05:24 - 18° (NNE) 2,540 4.4 -18.8°
